| time (UTC) | temp C | wind direction | speed KPH | gust KPH | rain 1hr cm | rain 24hr cm | rain mn cm | humidity % | barometer mb |
| 20260508182904 | 8 | 346 | 3.2 | 4.8 | 0.00 | 0.10 | 0.08 | 69 | 1019.1 |
| 20260508181904 | 8 | 7 | 3.2 | 8.0 | 0.00 | 0.10 | 0.08 | 69 | 1019.0 |
| 20260508181405 | 8 | 348 | 4.8 | 14.5 | 0.00 | 0.10 | 0.08 | 71 | 1018.8 |
| 20260508180404 | 8 | 323 | 3.2 | 8.0 | 0.00 | 0.10 | 0.08 | 75 | 1018.6 |
| 20260508175404 | 8 | 324 | 1.6 | 4.8 | 0.00 | 0.10 | 0.08 | 76 | 1018.3 |
| 20260508174904 | 8 | 338 | 1.6 | 3.2 | 0.00 | 0.10 | 0.08 | 74 | 1018.3 |
| 20260508174404 | 8 | 323 | 3.2 | 4.8 | 0.00 | 0.10 | 0.08 | 73 | 1018.2 |
| 20260508173904 | 8 | 324 | 4.8 | 8.0 | 0.00 | 0.10 | 0.08 | 69 | 1018.2 |
| 20260508172904 | 9 | 344 | 4.8 | 9.7 | 0.00 | 0.10 | 0.08 | 68 | 1018.1 |
| 20260508172404 | 9 | 342 | 1.6 | 12.9 | 0.00 | 0.10 | 0.08 | 66 | 1018.1 |
| 20260508171904 | 10 | 5 | 4.8 | 19.3 | 0.00 | 0.10 | 0.08 | 64 | 1018.0 |
| 20260508171403 | 10 | 334 | 3.2 | 12.9 | 0.00 | 0.10 | 0.08 | 63 | 1017.9 |
| 20260508170904 | 11 | 297 | 4.8 | 16.1 | 0.00 | 0.10 | 0.08 | 61 | 1017.8 |
| 20260508170404 | 11 | 308 | 3.2 | 4.8 | 0.00 | 0.10 | 0.08 | 62 | 1017.7 |
| 20260508165904 | 11 | 323 | 1.6 | 8.0 | 0.00 | 0.10 | 0.08 | 59 | 1017.6 |
| 20260508165404 | 11 | 352 | 3.2 | 8.0 | 0.00 | 0.10 | 0.08 | 58 | 1017.5 |
| 20260508164904 | 11 | 315 | 3.2 | 16.1 | 0.00 | 0.10 | 0.08 | 57 | 1017.3 |
| 20260508164404 | 11 | 255 | 3.2 | 9.7 | 0.00 | 0.10 | 0.08 | 58 | 1017.3 |
| 20260508163904 | 11 | 279 | 1.6 | 8.0 | 0.00 | 0.10 | 0.08 | 58 | 1017.2 |
| 20260508163404 | 11 | 348 | 3.2 | 9.7 | 0.00 | 0.10 | 0.08 | 58 | 1017.2 |
| 20260508162903 | 11 | 297 | 1.6 | 4.8 | 0.00 | 0.10 | 0.08 | 61 | 1017.1 |
| 20260508162403 | 11 | 1 | 3.2 | 11.3 | 0.00 | 0.10 | 0.08 | 61 | 1017.0 |
| 20260508161904 | 11 | 302 | 1.6 | 8.0 | 0.00 | 0.10 | 0.08 | 63 | 1017.0 |
| 20260508161404 | 11 | 314 | 4.8 | 16.1 | 0.00 | 0.10 | 0.08 | 61 | 1016.8 |
| 20260508160904 | 11 | 303 | 3.2 | 16.1 | 0.00 | 0.10 | 0.08 | 61 | 1016.7 |
| 20260508160404 | 11 | 345 | 3.2 | 9.7 | 0.00 | 0.10 | 0.08 | 62 | 1016.7 |
| 20260508155904 | 11 | 279 | 1.6 | 9.7 | 0.00 | 0.10 | 0.08 | 59 | 1016.9 |
| 20260508155404 | 10 | 269 | 3.2 | 4.8 | 0.00 | 0.10 | 0.08 | 62 | 1016.8 |
| 20260508154904 | 10 | 315 | 3.2 | 4.8 | 0.00 | 0.10 | 0.08 | 65 | 1016.8 |
| 20260508154404 | 10 | 335 | 3.2 | 9.7 | 0.00 | 0.10 | 0.08 | 62 | 1016.7 |
| 20260508153904 | 11 | 0 | 3.2 | 16.1 | 0.00 | 0.13 | 0.08 | 61 | 1016.6 |
| 20260508153404 | 11 | 350 | 4.8 | 11.3 | 0.00 | 0.13 | 0.08 | 60 | 1016.6 |
| 20260508152904 | 11 | 339 | 3.2 | 12.9 | 0.00 | 0.13 | 0.08 | 59 | 1016.5 |
| 20260508152404 | 11 | 351 | 1.6 | 4.8 | 0.00 | 0.13 | 0.08 | 58 | 1016.5 |
| 20260508151905 | 11 | 319 | 3.2 | 16.1 | 0.00 | 0.18 | 0.08 | 60 | 1016.3 |
| 20260508151404 | 11 | 319 | 3.2 | 12.9 | 0.00 | 0.23 | 0.08 | 60 | 1016.3 |
| 20260508150903 | 12 | 345 | 4.8 | 12.9 | 0.00 | 0.46 | 0.08 | 58 | 1016.2 |
| 20260508150404 | 12 | 335 | 4.8 | 9.7 | 0.00 | 0.46 | 0.08 | 58 | 1016.2 |
| 20260508145905 | 12 | 285 | 4.8 | 9.7 | 0.00 | 0.48 | 0.08 | 56 | 1016.1 |
| 20260508145403 | 11 | 268 | 3.2 | 8.0 | 0.00 | 0.48 | 0.08 | 57 | 1016.1 |
| 20260508144904 | 11 | 321 | 1.6 | 19.3 | 0.00 | 0.48 | 0.08 | 62 | 1016.0 |
| 20260508144403 | 11 | 313 | 3.2 | 11.3 | 0.00 | 0.48 | 0.08 | 62 | 1016.0 |
| 20260508143404 | 11 | 316 | 3.2 | 8.0 | 0.00 | 0.48 | 0.08 | 61 | 1015.7 |
| 20260508142404 | 11 | 318 | 4.8 | 12.9 | 0.00 | 0.48 | 0.08 | 61 | 1015.8 |
| 20260508141903 | 11 | 285 | 3.2 | 9.7 | 0.00 | 0.48 | 0.08 | 62 | 1015.7 |
| 20260508141403 | 11 | 296 | 3.2 | 12.9 | 0.00 | 0.48 | 0.08 | 60 | 1015.7 |
| 20260508140404 | 11 | 331 | 3.2 | 14.5 | 0.00 | 0.48 | 0.08 | 62 | 1015.5 |
| 20260508135903 | 11 | 267 | 3.2 | 8.0 | 0.00 | 0.48 | 0.08 | 59 | 1015.4 |
| 20260508135403 | 11 | 299 | 3.2 | 8.0 | 0.00 | 0.48 | 0.08 | 61 | 1015.3 |
| 20260508134904 | 11 | 310 | 3.2 | 12.9 | 0.00 | 0.48 | 0.08 | 59 | 1015.3 |
| 20260508133904 | 11 | 250 | 3.2 | 11.3 | 0.00 | 0.48 | 0.08 | 56 | 1015.0 |
| 20260508132905 | 11 | 306 | 1.6 | 11.3 | 0.00 | 0.48 | 0.08 | 62 | 1014.9 |
| 20260508132404 | 11 | 286 | 4.8 | 12.9 | 0.00 | 0.48 | 0.08 | 62 | 1014.8 |
| 20260508131904 | 11 | 281 | 1.6 | 4.8 | 0.00 | 0.48 | 0.08 | 66 | 1014.8 |
| 20260508131404 | 11 | 273 | 1.6 | 8.0 | 0.00 | 0.48 | 0.08 | 64 | 1014.8 |
| 20260508130404 | 11 | 334 | 3.2 | 11.3 | 0.00 | 0.48 | 0.08 | 63 | 1014.6 |
| 20260508125404 | 11 | 352 | 3.2 | 8.0 | 0.00 | 0.48 | 0.08 | 61 | 1014.5 |
| 20260508124903 | 11 | 229 | 1.6 | 4.8 | 0.00 | 0.48 | 0.08 | 63 | 1014.4 |
| 20260508124404 | 10 | 353 | 1.6 | 8.0 | 0.00 | 0.48 | 0.08 | 64 | 1014.3 |
| 20260508123903 | 10 | 349 | 3.2 | 9.7 | 0.00 | 0.48 | 0.08 | 64 | 1014.3 |
| 20260508122904 | 10 | 344 | 3.2 | 9.7 | 0.00 | 0.48 | 0.08 | 67 | 1014.2 |
| 20260508122403 | 10 | 344 | 3.2 | 9.7 | 0.00 | 0.48 | 0.08 | 66 | 1014.1 |
| 20260508121904 | 11 | 241 | 3.2 | 14.5 | 0.00 | 0.48 | 0.08 | 66 | 1014.1 |
| 20260508121404 | 11 | 259 | 1.6 | 8.0 | 0.00 | 0.48 | 0.08 | 64 | 1013.9 |
| 20260508120403 | 11 | 271 | 1.6 | 4.8 | 0.00 | 0.48 | 0.08 | 67 | 1013.9 |
| 20260508115904 | 10 | 271 | 3.2 | 12.9 | 0.00 | 0.48 | 0.08 | 66 | 1013.7 |
| 20260508115404 | 10 | 340 | 3.2 | 4.8 | 0.00 | 0.48 | 0.08 | 67 | 1013.6 |
| 20260508114903 | 10 | 272 | 1.6 | 4.8 | 0.00 | 0.48 | 0.08 | 67 | 1013.6 |
| 20260508114404 | 10 | 255 | 3.2 | 8.0 | 0.00 | 0.48 | 0.08 | 64 | 1013.4 |
| 20260508113904 | 11 | 264 | 1.6 | 9.7 | 0.00 | 0.48 | 0.08 | 68 | 1013.4 |
| 20260508113404 | 11 | 278 | 1.6 | 4.8 | 0.00 | 0.48 | 0.08 | 70 | 1013.2 |
| 20260508112904 | 11 | 289 | 3.2 | 9.7 | 0.00 | 0.48 | 0.08 | 65 | 1013.1 |
| 20260508112404 | 11 | 301 | 3.2 | 11.3 | 0.00 | 0.48 | 0.08 | 66 | 1012.8 |
| 20260508111903 | 10 | 284 | 3.2 | 11.3 | 0.00 | 0.48 | 0.08 | 69 | 1012.9 |
| 20260508111404 | 10 | 351 | 3.2 | 11.3 | 0.00 | 0.48 | 0.08 | 68 | 1012.7 |
| 20260508110903 | 10 | 242 | 0.0 | 3.2 | 0.00 | 0.48 | 0.08 | 71 | 1012.5 |
| 20260508110404 | 9 | 252 | 1.6 | 4.8 | 0.00 | 0.48 | 0.08 | 72 | 1012.6 |
| 20260508105404 | 11 | 299 | 1.6 | 4.8 | 0.00 | 0.48 | 0.08 | 69 | 1012.2 |
| 20260508104904 | 10 | 297 | 3.2 | 4.8 | 0.00 | 0.48 | 0.08 | 69 | 1012.1 |
| 20260508104404 | 10 | 269 | 1.6 | 4.8 | 0.00 | 0.48 | 0.08 | 71 | 1012.2 |
| 20260508103903 | 10 | 253 | 3.2 | 4.8 | 0.00 | 0.48 | 0.08 | 71 | 1012.2 |
| 20260508103404 | 10 | 352 | 3.2 | 9.7 | 0.00 | 0.48 | 0.08 | 70 | 1012.1 |
| 20260508102903 | 10 | 288 | 1.6 | 14.5 | 0.00 | 0.48 | 0.08 | 70 | 1012.0 |
| 20260508102404 | 10 | 289 | 1.6 | 4.8 | 0.00 | 0.48 | 0.08 | 73 | 1011.9 |
| 20260508101404 | 10 | 322 | 3.2 | 11.3 | 0.00 | 0.48 | 0.08 | 69 | 1011.7 |
| 20260508095904 | 11 | 235 | 3.2 | 11.3 | 0.00 | 0.48 | 0.08 | 69 | 1011.5 |
| 20260508095404 | 11 | 256 | 4.8 | 11.3 | 0.00 | 0.48 | 0.08 | 70 | 1011.4 |
| 20260508094903 | 10 | 354 | 3.2 | 11.3 | 0.00 | 0.48 | 0.08 | 70 | 1011.3 |
| 20260508094404 | 10 | 266 | 3.2 | 8.0 | 0.00 | 0.48 | 0.08 | 72 | 1011.2 |
| 20260508093904 | 10 | 271 | 3.2 | 14.5 | 0.00 | 0.48 | 0.08 | 73 | 1011.1 |
| 20260508093404 | 9 | 264 | 1.6 | 9.7 | 0.00 | 0.48 | 0.08 | 78 | 1011.1 |
| 20260508092904 | 9 | 273 | 1.6 | 4.8 | 0.00 | 0.48 | 0.08 | 79 | 1011.0 |
| 20260508092404 | 9 | 269 | 1.6 | 9.7 | 0.00 | 0.48 | 0.08 | 78 | 1010.9 |
| 20260508091904 | 9 | 265 | 1.6 | 4.8 | 0.00 | 0.48 | 0.08 | 81 | 1010.7 |
| 20260508091404 | 9 | 328 | 1.6 | 9.7 | 0.00 | 0.48 | 0.08 | 81 | 1010.7 |
| 20260508090903 | 9 | 299 | 0.0 | 0.0 | 0.00 | 0.48 | 0.08 | 77 | 1010.7 |
| 20260508090404 | 10 | 320 | 1.6 | 4.8 | 0.00 | 0.48 | 0.08 | 75 | 1010.8 |
| 20260508085904 | 10 | 278 | 3.2 | 8.0 | 0.03 | 0.48 | 0.08 | 71 | 1010.6 |
| 20260508085403 | 11 | 269 | 1.6 | 4.8 | 0.03 | 0.48 | 0.08 | 70 | 1010.3 |
| 20260508084404 | 11 | 314 | 1.6 | 3.2 | 0.03 | 0.48 | 0.08 | 70 | 1010.2 |
| 20260508083903 | 10 | 317 | 3.2 | 12.9 | 0.03 | 0.48 | 0.08 | 71 | 1010.1 |
| 20260508083404 | 10 | 288 | 1.6 | 11.3 | 0.03 | 0.48 | 0.08 | 76 | 1010.1 |
| 20260508082904 | 10 | 274 | 1.6 | 4.8 | 0.03 | 0.48 | 0.08 | 78 | 1009.9 |
| 20260508082403 | 9 | 319 | 1.6 | 4.8 | 0.03 | 0.48 | 0.08 | 79 | 1009.8 |
| 20260508081904 | 10 | 265 | 1.6 | 11.3 | 0.03 | 0.48 | 0.08 | 78 | 1009.8 |
| 20260508081404 | 10 | 241 | 1.6 | 4.8 | 0.03 | 0.48 | 0.08 | 80 | 1009.7 |
| 20260508080904 | 9 | 226 | 0.0 | 4.8 | 0.03 | 0.48 | 0.08 | 82 | 1009.6 |
| 20260508080403 | 9 | 272 | 0.0 | 4.8 | 0.03 | 0.48 | 0.08 | 83 | 1009.4 |
| 20260508075904 | 8 | 276 | 0.0 | 1.6 | 0.00 | 0.46 | 0.05 | 81 | 1009.4 |
| 20260508075404 | 9 | 316 | 0.0 | 1.6 | 0.00 | 0.46 | 0.05 | 81 | 1009.2 |
| 20260508074903 | 9 | 278 | 0.0 | 4.8 | 0.00 | 0.46 | 0.05 | 82 | 1009.2 |
| 20260508074405 | 9 | 272 | 1.6 | 4.8 | 0.00 | 0.46 | 0.05 | 81 | 1008.8 |
| 20260508073904 | 8 | 309 | 0.0 | 3.2 | 0.00 | 0.46 | 0.05 | 83 | 1008.7 |
| 20260508073403 | 8 | 300 | 1.6 | 4.8 | 0.00 | 0.46 | 0.05 | 83 | 1008.7 |
| 20260508072904 | 9 | 289 | 1.6 | 4.8 | 0.00 | 0.46 | 0.05 | 84 | 1008.6 |
| 20260508072404 | 8 | 281 | 3.2 | 4.8 | 0.00 | 0.46 | 0.05 | 84 | 1008.5 |
| 20260508071904 | 8 | 301 | 3.2 | 4.8 | 0.00 | 0.46 | 0.05 | 85 | 1008.4 |
| 20260508071404 | 8 | 298 | 0.0 | 4.8 | 0.00 | 0.46 | 0.05 | 87 | 1008.4 |
| 20260508070904 | 8 | 348 | 1.6 | 4.8 | 0.00 | 0.46 | 0.05 | 87 | 1008.3 |
| 20260508070404 | 8 | 280 | 1.6 | 4.8 | 0.00 | 0.46 | 0.05 | 87 | 1008.3 |
| 20260508065904 | 8 | 314 | 0.0 | 3.2 | 0.00 | 0.46 | 0.05 | 87 | 1008.3 |
| 20260508065404 | 8 | 330 | 1.6 | 3.2 | 0.00 | 0.46 | 0.05 | 86 | 1008.2 |
| 20260508064905 | 8 | 346 | 1.6 | 8.0 | 0.00 | 0.46 | 0.05 | 86 | 1008.2 |
| 20260508064404 | 8 | 263 | 3.2 | 12.9 | 0.00 | 0.46 | 0.05 | 86 | 1008.0 |
| 20260508063904 | 8 | 310 | 3.2 | 8.0 | 0.00 | 0.46 | 0.05 | 87 | 1007.8 |
| 20260508063404 | 8 | 331 | 3.2 | 4.8 | 0.00 | 0.46 | 0.05 | 87 | 1007.7 |
| 20260508062903 | 8 | 299 | 1.6 | 3.2 | 0.00 | 0.46 | 0.05 | 87 | 1007.6 |
| 20260508062404 | 8 | 280 | 3.2 | 4.8 | 0.00 | 0.46 | 0.05 | 87 | 1007.4 |
| 20260508060904 | 7 | 313 | 0.0 | 4.8 | 0.00 | 0.46 | 0.05 | 88 | 1007.4 |
| 20260508060404 | 7 | 355 | 0.0 | 1.6 | 0.00 | 0.46 | 0.05 | 88 | 1007.2 |
| 20260508055404 | 7 | 260 | 1.6 | 3.2 | 0.00 | 0.46 | 0.05 | 89 | 1007.0 |
| 20260508054904 | 7 | 266 | 1.6 | 3.2 | 0.00 | 0.46 | 0.05 | 88 | 1007.1 |
| 20260508054404 | 7 | 183 | 1.6 | 4.8 | 0.00 | 0.46 | 0.05 | 88 | 1006.8 |
| 20260508053904 | 7 | 177 | 1.6 | 4.8 | 0.00 | 0.46 | 0.05 | 89 | 1006.8 |
| 20260508053403 | 7 | 298 | 1.6 | 4.8 | 0.00 | 0.46 | 0.05 | 88 | 1006.8 |
| 20260508052904 | 7 | 222 | 1.6 | 3.2 | 0.00 | 0.46 | 0.05 | 88 | 1006.7 |
| 20260508052404 | 7 | 192 | 1.6 | 3.2 | 0.00 | 0.46 | 0.05 | 87 | 1006.6 |
| 20260508051904 | 7 | 196 | 3.2 | 9.7 | 0.00 | 0.46 | 0.05 | 87 | 1006.6 |
| 20260508051404 | 7 | 183 | 0.0 | 4.8 | 0.00 | 0.46 | 0.05 | 87 | 1006.7 |
| 20260508050904 | 7 | 186 | 0.0 | 1.6 | 0.00 | 0.46 | 0.05 | 87 | 1006.5 |
| 20260508050404 | 7 | 190 | 1.6 | 3.2 | 0.00 | 0.46 | 0.05 | 87 | 1006.5 |
| 20260508045904 | 7 | 198 | 0.0 | 4.8 | 0.00 | 0.46 | 0.05 | 87 | 1006.5 |
| 20260508045403 | 7 | 188 | 0.0 | 4.8 | 0.00 | 0.46 | 0.05 | 87 | 1006.5 |
| 20260508044904 | 7 | 184 | 1.6 | 8.0 | 0.00 | 0.46 | 0.05 | 87 | 1006.4 |
| 20260508044404 | 7 | 200 | 1.6 | 3.2 | 0.00 | 0.46 | 0.05 | 87 | 1006.4 |
| 20260508043904 | 7 | 186 | 1.6 | 3.2 | 0.00 | 0.46 | 0.05 | 87 | 1006.3 |
| 20260508042904 | 7 | 183 | 1.6 | 8.0 | 0.00 | 0.46 | 0.05 | 87 | 1006.3 |
| 20260508041904 | 7 | 167 | 0.0 | 9.7 | 0.03 | 0.46 | 0.05 | 87 | 1006.2 |
| 20260508041404 | 7 | 166 | 3.2 | 4.8 | 0.03 | 0.46 | 0.05 | 87 | 1006.2 |
| 20260508040905 | 7 | 161 | 1.6 | 4.8 | 0.03 | 0.46 | 0.05 | 87 | 1006.1 |
| 20260508040405 | 7 | 169 | 1.6 | 4.8 | 0.03 | 0.46 | 0.05 | 88 | 1006.2 |
| 20260508035904 | 7 | 170 | 0.0 | 4.8 | 0.03 | 0.46 | 0.05 | 88 | 1006.1 |
| 20260508034904 | 7 | 247 | 1.6 | 3.2 | 0.03 | 0.46 | 0.05 | 88 | 1005.9 |
| 20260508032903 | 7 | 243 | 1.6 | 3.2 | 0.03 | 0.46 | 0.05 | 87 | 1005.9 |
| 20260508032404 | 7 | 238 | 0.0 | 3.2 | 0.03 | 0.46 | 0.05 | 87 | 1005.9 |
| 20260508031904 | 7 | 237 | 1.6 | 4.8 | 0.00 | 0.43 | 0.03 | 87 | 1005.9 |
| 20260508031403 | 7 | 259 | 0.0 | 3.2 | 0.00 | 0.43 | 0.03 | 87 | 1005.8 |
| 20260508030904 | 7 | 259 | 0.0 | 1.6 | 0.00 | 0.43 | 0.03 | 87 | 1005.8 |
| 20260508030404 | 7 | 249 | 0.0 | 11.3 | 0.00 | 0.43 | 0.03 | 86 | 1005.7 |
| 20260508025403 | 7 | 168 | 1.6 | 9.7 | 0.03 | 0.43 | 0.03 | 87 | 1005.6 |
| 20260508024404 | 7 | 217 | 1.6 | 4.8 | 0.03 | 0.43 | 0.03 | 87 | 1005.3 |
| 20260508023404 | 7 | 175 | 3.2 | 9.7 | 0.03 | 0.43 | 0.03 | 88 | 1005.3 |
| 20260508022404 | 7 | 264 | 1.6 | 3.2 | 0.03 | 0.43 | 0.03 | 88 | 1005.3 |
| 20260508021904 | 7 | 251 | 1.6 | 4.8 | 0.03 | 0.43 | 0.03 | 88 | 1005.3 |
| 20260508021404 | 7 | 280 | 1.6 | 11.3 | 0.03 | 0.43 | 0.03 | 87 | 1005.3 |
| 20260508020904 | 7 | 176 | 3.2 | 8.0 | 0.03 | 0.43 | 0.03 | 86 | 1005.4 |
| 20260508020404 | 7 | 146 | 1.6 | 9.7 | 0.03 | 0.43 | 0.03 | 86 | 1005.3 |
| 20260508015904 | 7 | 48 | 3.2 | 12.9 | 0.00 | 0.41 | 0.00 | 85 | 1005.2 |
| 20260508014904 | 7 | 184 | 0.0 | 4.8 | 0.00 | 0.41 | 0.00 | 85 | 1005.1 |
| 20260508014404 | 7 | 174 | 3.2 | 11.3 | 0.00 | 0.41 | 0.00 | 85 | 1005.0 |
| 20260508013904 | 7 | 169 | 3.2 | 19.3 | 0.00 | 0.41 | 0.00 | 85 | 1004.9 |
| 20260508013403 | 7 | 175 | 4.8 | 9.7 | 0.00 | 0.41 | 0.00 | 86 | 1004.9 |
| 20260508012904 | 7 | 174 | 3.2 | 12.9 | 0.00 | 0.41 | 0.00 | 86 | 1004.9 |
| 20260508012403 | 7 | 233 | 1.6 | 4.8 | 0.00 | 0.41 | 0.00 | 86 | 1005.0 |
| 20260508011904 | 7 | 178 | 1.6 | 11.3 | 0.00 | 0.41 | 0.00 | 86 | 1004.9 |
| 20260508011404 | 7 | 165 | 3.2 | 12.9 | 0.00 | 0.41 | 0.00 | 86 | 1004.8 |
| 20260508010904 | 7 | 176 | 1.6 | 9.7 | 0.00 | 0.41 | 0.00 | 86 | 1004.8 |
| 20260508010404 | 7 | 219 | 1.6 | 4.8 | 0.00 | 0.41 | 0.00 | 85 | 1004.8 |
| 20260508005904 | 7 | 285 | 1.6 | 11.3 | 0.00 | 0.41 | 0.00 | 85 | 1004.7 |
| 20260508005404 | 7 | 170 | 3.2 | 12.9 | 0.00 | 0.41 | 0.00 | 85 | 1004.7 |
| 20260508004904 | 7 | 346 | 3.2 | 11.3 | 0.00 | 0.41 | 0.00 | 85 | 1004.5 |
| 20260508003903 | 7 | 280 | 3.2 | 11.3 | 0.00 | 0.41 | 0.00 | 85 | 1004.3 |
| 20260508002904 | 7 | 182 | 3.2 | 14.5 | 0.00 | 0.41 | 0.00 | 86 | 1004.2 |
| 20260508002405 | 7 | 197 | 4.8 | 11.3 | 0.00 | 0.41 | 0.00 | 86 | 1004.1 |
| 20260508000904 | 7 | 176 | 3.2 | 11.3 | 0.00 | 0.41 | 0.00 | 86 | 1004.2 |
| 20260508000405 | 7 | 178 | 3.2 | 9.7 | 0.00 | 0.41 | 0.00 | 86 | 1004.2 |
| 20260507235904 | 7 | 171 | 4.8 | 11.3 | 0.00 | 0.41 | 0.00 | 86 | 1004.1 |
| 20260507235405 | 7 | 178 | 3.2 | 11.3 | 0.03 | 0.41 | 0.00 | 86 | 1004.1 |
| 20260507234404 | 7 | 203 | 3.2 | 9.7 | 0.03 | 0.41 | 0.00 | 87 | 1004.0 |
| 20260507233904 | 7 | 173 | 3.2 | 12.9 | 0.03 | 0.41 | 0.00 | 87 | 1004.1 |
| 20260507233403 | 7 | 168 | 8.0 | 16.1 | 0.03 | 0.41 | 0.00 | 87 | 1004.1 |
| 20260507232904 | 7 | 173 | 4.8 | 9.7 | 0.03 | 0.41 | 0.00 | 87 | 1004.0 |
| 20260507231904 | 7 | 154 | 4.8 | 11.3 | 0.03 | 0.41 | 0.00 | 87 | 1004.2 |
| 20260507231404 | 7 | 221 | 4.8 | 20.9 | 0.03 | 0.41 | 0.00 | 87 | 1004.1 |
| 20260507230904 | 7 | 251 | 3.2 | 16.1 | 0.03 | 0.41 | 0.00 | 87 | 1004.1 |
| 20260507230404 | 7 | 0 | 1.6 | 14.5 | 0.03 | 0.41 | 0.00 | 86 | 1004.1 |
| 20260507225904 | 8 | 159 | 3.2 | 9.7 | 0.03 | 0.41 | 0.41 | 85 | 1004.2 |
| 20260507225404 | 8 | 294 | 3.2 | 9.7 | 0.03 | 0.41 | 0.41 | 84 | 1004.4 |
| 20260507224404 | 8 | 187 | 3.2 | 19.3 | 0.00 | 0.38 | 0.38 | 82 | 1004.0 |
| 20260507223904 | 8 | 167 | 3.2 | 12.9 | 0.00 | 0.38 | 0.38 | 82 | 1004.0 |
| 20260507223404 | 7 | 217 | 3.2 | 11.3 | 0.00 | 0.38 | 0.38 | 82 | 1004.1 |
| 20260507222904 | 7 | 169 | 1.6 | 11.3 | 0.00 | 0.38 | 0.38 | 83 | 1004.0 |
| 20260507222404 | 8 | 197 | 3.2 | 12.9 | 0.00 | 0.38 | 0.38 | 83 | 1004.1 |
| 20260507221904 | 8 | 155 | 3.2 | 12.9 | 0.00 | 0.38 | 0.38 | 84 | 1004.0 |
| 20260507220904 | 8 | 282 | 3.2 | 9.7 | 0.00 | 0.38 | 0.38 | 84 | 1004.0 |
| 20260507220404 | 8 | 163 | 3.2 | 14.5 | 0.00 | 0.38 | 0.38 | 84 | 1004.0 |
| 20260507215904 | 8 | 164 | 4.8 | 16.1 | 0.00 | 0.38 | 0.38 | 84 | 1004.0 |
| 20260507215404 | 8 | 230 | 3.2 | 12.9 | 0.00 | 0.38 | 0.38 | 84 | 1004.0 |
| 20260507214903 | 8 | 198 | 3.2 | 11.3 | 0.00 | 0.38 | 0.38 | 83 | 1004.1 |
| 20260507213905 | 8 | 191 | 4.8 | 11.3 | 0.00 | 0.38 | 0.38 | 81 | 1004.1 |
| 20260507213404 | 8 | 183 | 4.8 | 12.9 | 0.00 | 0.38 | 0.38 | 81 | 1004.0 |
| 20260507212905 | 8 | 197 | 4.8 | 12.9 | 0.00 | 0.38 | 0.38 | 82 | 1003.9 |
| 20260507211904 | 8 | 295 | 1.6 | 4.8 | 0.00 | 0.38 | 0.38 | 82 | 1004.0 |
| 20260507210904 | 8 | 175 | 8.0 | 12.9 | 0.00 | 0.38 | 0.38 | 82 | 1004.0 |
| 20260507210404 | 8 | 166 | 3.2 | 12.9 | 0.00 | 0.38 | 0.38 | 82 | 1004.1 |
| 20260507205904 | 8 | 219 | 3.2 | 12.9 | 0.00 | 0.38 | 0.38 | 83 | 1004.0 |
| 20260507205404 | 8 | 177 | 4.8 | 12.9 | 0.00 | 0.38 | 0.38 | 83 | 1004.0 |
| 20260507204905 | 8 | 195 | 8.0 | 20.9 | 0.00 | 0.38 | 0.38 | 83 | 1004.0 |
| 20260507204404 | 8 | 173 | 3.2 | 16.1 | 0.00 | 0.38 | 0.38 | 83 | 1004.0 |
| 20260507203904 | 8 | 174 | 3.2 | 14.5 | 0.00 | 0.38 | 0.38 | 83 | 1003.9 |
| 20260507203404 | 8 | 198 | 1.6 | 4.8 | 0.00 | 0.38 | 0.38 | 84 | 1003.9 |
| 20260507202904 | 8 | 161 | 3.2 | 9.7 | 0.00 | 0.38 | 0.38 | 84 | 1003.9 |
| 20260507202404 | 8 | 256 | 1.6 | 8.0 | 0.00 | 0.38 | 0.38 | 83 | 1003.9 |
| 20260507201904 | 8 | 245 | 1.6 | 4.8 | 0.00 | 0.38 | 0.38 | 82 | 1003.9 |
| 20260507201404 | 9 | 276 | 0.0 | 3.2 | 0.00 | 0.38 | 0.38 | 81 | 1003.9 |
| 20260507200904 | 9 | 165 | 3.2 | 14.5 | 0.00 | 0.38 | 0.38 | 80 | 1003.9 |
| 20260507200403 | 9 | 184 | 3.2 | 9.7 | 0.00 | 0.38 | 0.38 | 80 | 1003.7 |
| 20260507195904 | 9 | 164 | 4.8 | 19.3 | 0.00 | 0.38 | 0.38 | 79 | 1003.7 |
| 20260507195404 | 9 | 176 | 4.8 | 14.5 | 0.00 | 0.38 | 0.38 | 78 | 1003.8 |
| 20260507194903 | 9 | 173 | 6.4 | 14.5 | 0.00 | 0.38 | 0.38 | 78 | 1003.7 |
| 20260507194403 | 9 | 179 | 4.8 | 14.5 | 0.00 | 0.38 | 0.38 | 78 | 1003.8 |
| 20260507193904 | 9 | 158 | 4.8 | 14.5 | 0.00 | 0.38 | 0.38 | 79 | 1003.7 |
| 20260507193404 | 9 | 168 | 4.8 | 19.3 | 0.00 | 0.38 | 0.38 | 79 | 1003.7 |
| 20260507192904 | 9 | 179 | 4.8 | 12.9 | 0.00 | 0.38 | 0.38 | 80 | 1003.7 |
| 20260507192405 | 9 | 170 | 6.4 | 11.3 | 0.00 | 0.38 | 0.38 | 80 | 1003.7 |
| 20260507191904 | 9 | 182 | 3.2 | 16.1 | 0.00 | 0.38 | 0.38 | 79 | 1003.7 |
| 20260507190404 | 9 | 195 | 6.4 | 20.9 | 0.00 | 0.38 | 0.38 | 82 | 1003.6 |
| 20260507185904 | 9 | 144 | 4.8 | 19.3 | 0.00 | 0.38 | 0.38 | 83 | 1003.7 |
| 20260507184903 | 10 | 181 | 4.8 | 16.1 | 0.00 | 0.38 | 0.38 | 84 | 1003.6 |
| 20260507184403 | 9 | 180 | 4.8 | 24.1 | 0.00 | 0.38 | 0.38 | 83 | 1003.7 |